{"data":{"norad_id":49208,"intl_designator":"2021-083Y","name":"ONEWEB-0342","alt_names":[],"object_type":"PAYLOAD","status":"ACTIVE","operator":null,"country":"UK","launch_date":"2021-09-14","launch_site_code":"TYMSC","launch_vehicle":null,"mission":null,"orbit_class":"UNKNOWN","rcs_meters":null,"size_class":null,"mass_kg":null,"dimensions":null,"purposes":["comms"],"wikipedia_slug":null,"has_3d_model":false,"image_url":null,"decayed_at":null,"tle_current":{"epoch":"2026-05-25T02:14:41.913024Z","epoch_age_seconds":66717,"freshness":"FRESH","line1":"1 49208U 21083Y   26145.09354066 -.00000026  00000+0 -95773-4 0  9992","line2":"2 49208  87.9174 279.0410 0001782  98.7581 261.3754 13.20772049233731","mean_motion":13.20772049,"eccentricity":0.0001782,"inclination_deg":87.9174,"raan_deg":279.041,"arg_perigee_deg":98.7581,"mean_anomaly_deg":261.3754,"bstar":-9.5773e-5,"rev_number":23373,"period_min":109.02714068565,"perigee_km":1180.4252960567,"apogee_km":1183.1196477925,"semimajor_km":7559.9094719246,"source":"CELESTRAK","updated_at":"2026-05-25T13:38:22.514908Z"}}}